[[{"header":{"parameterUnit":"m.s-1","parameterCategory":1,"la1":30.2991,"la2":30.254,"lo1":-89.0895,"lo2":-89.0444,"dy":0.0017,"dx":0.0017,"nx":28,"ny":28,"refTime":"2023-09-11T03:00:00:Z","depth":0,"parameterNumber":2,"parameterNumberName":"U-component_of_WINDS"},"data":[0,0,0,0,0,0,0,0,0,0,0,0,0,0,0,0,0,0,0,0,0,0,0,0,0,0,0,0,0,0,0,0,0,0,0,0,0,0,0,0,0,0,0,0,0,0,0,0,0,0,0,0,0,0,0,0,0,0,0.3548,0.3549,0,0.3586,0.3587,0.3587,0.3597,0.3596,0.3596,0.3596,0.3634,0.3636,0.3637,0,0,0,0,0,0,0,0,0,0,0,0,0,0.3482,0.3483,0.3548,0.3549,0.3549,0.3586,0.3587,0.3587,0.3597,0.3596,0.3596,0.3596,0.3634,0.3635,0.3637,0,0,0,0,0,0,0,0,0,0,0,0,0,0.3515,0.3484,0.3548,0.3558,0.356,0.3586,0.3587,0.3587,0.3597,0.3596,0.3596,0.3596,0.3634,0.3635,0.3637,0.3656,0,0,0.3643,0.3644,0,0,0,0,0,0,0,0,0.3513,0.3517,0.3556,0.3558,0.3559,0.3586,0.3578,0.361,0.3597,0.3583,0.3596,0.3595,0.3619,0.3622,0.363,0.3658,0.366,0.3643,0.3644,0.3645,0.3646,0,0,0,0,0,0,0,0.351,0.3515,0.3563,0.3557,0.3559,0.356,0.3565,0.3584,0.3602,0.3584,0.3585,0.3589,0.3619,0.3628,0.3631,0.366,0.3643,0.3645,0.3646,0.3647,0.3704,0.3704,0,0,0,0,0,0,0.3507,0.3513,0.3562,0.3564,0.3535,0.3562,0.3567,0.3578,0.3602,0.3605,0.3589,0.3589,0.3625,0.3628,0.3632,0.3654,0.3645,0.3647,0.3648,0.3703,0.3704,0.3704,0,0,0,0,0,0,0.3505,0.3511,0.3561,0.3539,0.3546,0.3563,0.3576,0.3579,0.3587,0.3606,0.3609,0.3595,0.3625,0.3629,0.365,0.3656,0.3648,0.3649,0.3703,0.3703,0.3704,0.37,0,0,0,0,0,0,0.3503,0.351,0.3518,0.3539,0.3547,0.3578,0.3577,0.358,0.3591,0.3591,0.3612,0.3615,0.3625,0.3647,0.3651,0.3658,0.3651,0.3702,0.3703,0.3704,0.37,0.37,0.3701,0,0,0,0,0,0.3501,0.3516,0.3519,0.3524,0.3557,0.3578,0.3583,0.3593,0.3591,0.3599,0.361,0.3614,0.3654,0.3649,0.3654,0.3662,0.3702,0.3703,0.3704,0.3699,0.37,0.3701,0,0,0,0,0,0,0.3496,0.3519,0.3522,0.3545,0.3559,0.358,0.359,0.3594,0.361,0.361,0.3622,0.3627,0.3646,0.3656,0.3649,0.368,0.3678,0.368,0.3673,0.3674,0.3675,0.3672,0.3652,0,0,0,0,0,0.3497,0.3513,0.3532,0.355,0.3557,0.3572,0.3582,0.3589,0.3605,0.3611,0.3624,0.3639,0.3655,0.3665,0.3681,0.3701,0.3705,0.3709,0.3709,0.371,0.3711,0.3721,0.3723,0.3707,0.3707,0.3707,0,0,0.35,0.3515,0.3524,0.355,0.3562,0.3577,0.3578,0.3594,0.3605,0.3614,0.3633,0.3643,0.366,0.368,0.369,0.3689,0.3717,0.3711,0.3711,0.3713,0.3722,0.3724,0.3725,0.3707,0.3707,0.3707,0,0,0.3514,0.3527,0.3543,0.3555,0.3573,0.3582,0.3586,0.3605,0.3612,0.3632,0.3638,0.3651,0.3678,0.369,0.3699,0.3715,0.3719,0.372,0.3723,0.3733,0.3734,0.3735,0.374,0.3741,0.3721,0.3721,0.3721,0,0.3516,0.3539,0.355,0.3566,0.3576,0.3584,0.3599,0.361,0.3632,0.3639,0.3638,0.3671,0.3683,0.3705,0.3708,0.3716,0.372,0.3717,0.3733,0.3734,0.3735,0.374,0.3742,0.3721,0.3721,0.3721,0.3721,0,0.354,0.3556,0.3566,0.3587,0.3598,0.3614,0.3626,0.3636,0.3641,0.3651,0.367,0.3685,0.3702,0.3708,0.3714,0.373,0.3729,0.373,0.3729,0.3737,0.3741,0.3743,0.3721,0.3721,0.3721,0.3721,0,0,0.3552,0.3577,0.3581,0.3589,0.3609,0.3622,0.3637,0.3654,0.3662,0.3676,0.3689,0.3711,0.3711,0.3722,0.3729,0.3737,0.3747,0.3737,0.3738,0.3738,0.3764,0.3763,0.3765,0.3749,0.375,0.375,0.3763,0,0.3567,0.3594,0.3604,0.3626,0.364,0.3647,0.3659,0.3672,0.3681,0.3694,0.3703,0.3718,0.3719,0.3725,0.3733,0.3744,0.3752,0.3743,0.376,0.3761,0.3755,0.3767,0.3766,0.3777,0.3764,0.3765,0.3765,0,0.3589,0.3603,0.3626,0.3643,0.3649,0.3661,0.3676,0.3689,0.3703,0.3708,0.3719,0.3725,0.374,0.3737,0.3757,0.3751,0.3758,0.3764,0.3765,0.3767,0.3763,0.3769,0.3781,0.3783,0.3768,0.3768,0.3767,0,0.3594,0.3619,0.3636,0.3643,0.3663,0.3671,0.3679,0.3693,0.3702,0.3716,0.3722,0.3737,0.3745,0.3756,0.3766,0.3763,0.3784,0.3783,0.3789,0.3789,0.3793,0.3793,0.3807,0.3799,0.3799,0.3799,0.3799,0,0.3609,0.3623,0.3638,0.3648,0.3664,0.3674,0.3688,0.3697,0.3709,0.3721,0.3727,0.3738,0.375,0.3762,0.377,0.3784,0.3788,0.3793,0.3794,0.3792,0.3791,0.3797,0.3796,0.3799,0.3799,0.3799,0.3799,0,0.3618,0.3628,0.3647,0.3664,0.3668,0.3678,0.3692,0.3702,0.3711,0.3725,0.3729,0.3742,0.3756,0.3767,0.3786,0.379,0.3806,0.3808,0.3801,0.3802,0.3807,0.3806,0.3825,0.3827,0.3818,0.3818,0.3818,0,0.3627,0.3637,0.3655,0.3663,0.3671,0.3684,0.3693,0.3703,0.3712,0.3729,0.3736,0.3751,0.3763,0.3785,0.3796,0.381,0.3812,0.3818,0.3814,0.3811,0.3811,0.381,0.3811,0.3818,0.3818,0.3818,0.3818,0,0.3641,0.3645,0.3658,0.3672,0.3683,0.3695,0.3707,0.3713,0.3725,0.3734,0.3749,0.3758,0.3776,0.379,0.3805,0.3813,0.3817,0.3819,0.3821,0.3818,0.3814,0.3815,0.3802,0.3819,0.3819,0.3818,0.3818,0.3818,0.3649,0.3658,0.3672,0.3685,0.3695,0.3706,0.3715,0.3724,0.3737,0.3752,0.3757,0.3772,0.3784,0.3804,0.3813,0.3824,0.3824,0.3827,0.3828,0.3828,0.3828,0.3812,0.3827,0.3827,0.3827,0.3827,0.3827,0,0.3663,0.3671,0.3684,0.37,0.371,0.3713,0.3726,0.3734,0.3747,0.3758,0.377,0.3786,0.3799,0.3811,0.3824,0.3831,0.3833,0.3834,0.3833,0.3835,0.3827,0.3824,0.3832,0.3832,0.3832,0.3832,0.3832,0.3832,0.3671,0.3686,0.3692,0.3712,0.372,0.3734,0.3741,0.3751,0.376,0.3777,0.3788,0.3795,0.3806,0.3821,0.3833,0.3836,0.384,0.384,0.3844,0.3836,0.3836,0.3835,0.3832,0.3842,0.3842,0.3851,0.3851,0.3851]},{"header":{"parameterUnit":"m.s-1","parameterCategory":1,"la1":30.2991,"la2":30.254,"lo1":-89.0895,"lo2":-89.0444,"dy":0.0017,"dx":0.0017,"nx":28,"ny":28,"refTime":"2023-09-11T03:00:00:Z","depth":0,"parameterNumber":3,"parameterNumberName":"V-component_of_WINDS"},"data":[0,0,0,0,0,0,0,0,0,0,0,0,0,0,0,0,0,0,0,0,0,0,0,0,0,0,0,0,0,0,0,0,0,0,0,0,0,0,0,0,0,0,0,0,0,0,0,0,0,0,0,0,0,0,0,0,0,0,2.4641,2.4641,0,2.4654,2.4654,2.4655,2.4627,2.4626,2.4625,2.4624,2.4637,2.4638,2.4639,0,0,0,0,0,0,0,0,0,0,0,0,0,2.4589,2.459,2.4641,2.4641,2.4641,2.4654,2.4654,2.4655,2.4627,2.4626,2.4625,2.4624,2.4636,2.4638,2.4639,0,0,0,0,0,0,0,0,0,0,0,0,0,2.4608,2.459,2.4641,2.4629,2.4628,2.4654,2.4654,2.4655,2.4627,2.4626,2.4625,2.4623,2.4636,2.4638,2.4639,2.4677,0,0,2.4645,2.4645,0,0,0,0,0,0,0,0,2.4607,2.461,2.4631,2.463,2.4629,2.4638,2.4641,2.4662,2.4628,2.4628,2.4624,2.4623,2.4638,2.4639,2.4645,2.4678,2.4678,2.4645,2.4646,2.4647,2.4647,0,0,0,0,0,0,0,2.4605,2.4609,2.4646,2.4631,2.463,2.4622,2.4623,2.4645,2.464,2.4627,2.4625,2.4627,2.4637,2.4643,2.4645,2.4679,2.4645,2.4646,2.4647,2.4648,2.4741,2.4742,0,0,0,0,0,0,2.4606,2.4608,2.4646,2.4647,2.4614,2.4624,2.4626,2.4636,2.464,2.4639,2.4629,2.4626,2.4641,2.4643,2.4645,2.4688,2.4647,2.4648,2.4649,2.4739,2.4741,2.4743,0,0,0,0,0,0,2.4605,2.461,2.4645,2.4627,2.4631,2.4627,2.4639,2.4637,2.4643,2.4641,2.464,2.4636,2.464,2.4643,2.4669,2.4688,2.4649,2.4651,2.4738,2.474,2.4742,2.4775,0,0,0,0,0,0,2.4604,2.4609,2.4624,2.4627,2.4632,2.4669,2.464,2.4638,2.4646,2.4643,2.4647,2.4646,2.4639,2.4667,2.4671,2.469,2.4652,2.4736,2.4739,2.4741,2.4772,2.4778,2.4783,0,0,0,0,0,2.4602,2.4634,2.4625,2.463,2.4651,2.4671,2.4673,2.4664,2.4648,2.4662,2.4661,2.4646,2.4686,2.4669,2.4674,2.4694,2.4735,2.4738,2.4741,2.477,2.4777,2.4783,0,0,0,0,0,0,2.4633,2.4634,2.4625,2.4659,2.4665,2.4666,2.4684,2.4673,2.4683,2.468,2.4668,2.4669,2.4697,2.4698,2.468,2.473,2.4707,2.4711,2.4728,2.4734,2.474,2.4738,2.4654,0,0,0,0,0,2.4644,2.4661,2.466,2.469,2.4694,2.4688,2.4697,2.4689,2.4695,2.4698,2.4698,2.4704,2.4717,2.4726,2.4738,2.4773,2.4772,2.4789,2.4794,2.4798,2.4802,2.4818,2.4824,2.4753,2.4753,2.4753,0,0,2.4667,2.4669,2.468,2.4696,2.47,2.4717,2.4691,2.471,2.4722,2.47,2.4724,2.4725,2.473,2.476,2.4773,2.4762,2.4821,2.4802,2.4806,2.4807,2.4822,2.4828,2.4834,2.4755,2.4755,2.4754,0,0,2.4716,2.472,2.4744,2.4748,2.4755,2.4751,2.4756,2.4759,2.4758,2.4783,2.4766,2.478,2.4804,2.4808,2.4813,2.4862,2.4849,2.4867,2.4894,2.491,2.4916,2.4921,2.4936,2.4942,2.487,2.487,2.487,0,2.4743,2.4767,2.4758,2.4778,2.4784,2.4766,2.4789,2.4794,2.4804,2.4808,2.4796,2.4824,2.4827,2.4856,2.4868,2.4874,2.4878,2.4865,2.4916,2.4921,2.4925,2.494,2.4946,2.4872,2.4872,2.4872,2.4872,0,2.4799,2.4816,2.4835,2.4845,2.4854,2.4875,2.4868,2.4878,2.487,2.4867,2.4891,2.4893,2.4905,2.4911,2.4904,2.4939,2.4932,2.4918,2.4895,2.4934,2.4947,2.4953,2.4875,2.4874,2.4874,2.4873,0,0,2.4868,2.4871,2.4878,2.4881,2.4886,2.4899,2.4919,2.493,2.4938,2.4946,2.4961,2.4981,2.4967,2.4973,2.4966,2.498,2.5016,2.4964,2.4964,2.4972,2.5053,2.5062,2.5069,2.5008,2.5009,2.501,2.5052,0,2.4915,2.495,2.4941,2.4975,2.4989,2.4972,2.4989,2.4993,2.4991,2.5002,2.4999,2.5013,2.4995,2.4998,2.5012,2.5009,2.5032,2.5006,2.5021,2.5021,2.5018,2.5076,2.5087,2.5126,2.5057,2.5058,2.5059,0,2.4975,2.4983,2.5018,2.5019,2.5025,2.504,2.5049,2.5061,2.5064,2.5062,2.5068,2.5057,2.5075,2.5053,2.5078,2.506,2.5066,2.5065,2.5067,2.5066,2.5041,2.5076,2.5139,2.5144,2.5068,2.5067,2.5066,0,2.5019,2.504,2.5062,2.5066,2.5068,2.5079,2.508,2.5083,2.5089,2.5097,2.5101,2.5111,2.5116,2.5123,2.5115,2.51,2.514,2.5118,2.5137,2.5137,2.5145,2.5144,2.5208,2.5151,2.5151,2.5151,2.5151,0,2.5071,2.5093,2.5082,2.5096,2.5119,2.5109,2.5132,2.5131,2.5133,2.5146,2.5132,2.5144,2.5133,2.5144,2.5138,2.5158,2.5161,2.5158,2.5156,2.5158,2.5158,2.5161,2.5157,2.5153,2.5152,2.5152,2.5152,0,2.5124,2.5118,2.5141,2.5141,2.5141,2.5158,2.5157,2.5169,2.5166,2.5182,2.5185,2.5179,2.5191,2.5184,2.5197,2.5192,2.5218,2.5213,2.5216,2.5214,2.5233,2.5231,2.5299,2.5307,2.5247,2.5248,2.5248,0,2.5157,2.5173,2.5174,2.5181,2.5183,2.5195,2.5202,2.5192,2.5199,2.5204,2.5215,2.5226,2.5234,2.5254,2.525,2.5259,2.5253,2.5276,2.5254,2.5256,2.5251,2.5249,2.525,2.528,2.5281,2.5282,2.5282,0,2.5215,2.5211,2.5221,2.5229,2.5237,2.5243,2.5249,2.5255,2.5245,2.5254,2.5266,2.5272,2.5284,2.5294,2.5302,2.5302,2.529,2.5289,2.5294,2.5296,2.5296,2.5294,2.5226,2.5287,2.5287,2.5286,2.5286,2.5286,2.5258,2.527,2.5272,2.5283,2.5285,2.529,2.5301,2.5298,2.5308,2.5317,2.5311,2.5324,2.5326,2.5335,2.5337,2.5347,2.5337,2.5344,2.5346,2.5347,2.5349,2.5296,2.5348,2.5348,2.5348,2.5348,2.5348,0,2.5313,2.5313,2.5324,2.533,2.5339,2.5327,2.5331,2.5339,2.5351,2.5354,2.5362,2.5374,2.5384,2.5381,2.5389,2.5398,2.5392,2.54,2.5399,2.5398,2.5358,2.5352,2.5404,2.5404,2.5404,2.5404,2.5404,2.5404,2.5343,2.5363,2.5359,2.5379,2.5379,2.5392,2.5395,2.5399,2.5401,2.5416,2.5423,2.5421,2.5422,2.543,2.5437,2.5436,2.5439,2.5449,2.5445,2.5407,2.5402,2.5396,2.5391,2.545,2.545,2.5485,2.5485,2.5485]}]]